Location: Góry Miechowskie
(50.3599°N, 20.1803°E)
Time: 14:36:01
(UTC+00:00)

A-11 Canister half - Pass Details

Date: 22 September 2024
Orbit: 1515 x 1684 km, 47.2° (Epoch: 11 October)

Event Time Altitude Azimuth Distance (km) Brightness Sun altitude
Rises 22:00:26 0° 288° (WNW) 4,675 11.8 -39.4°
Reaches altitude 10° 22:04:00 10° 277° (W) 3,682 11.1 -39.4°
Enters shadow 22:06:49 19° 263° (W) 3,031 10.5 -39.5°
